Regional Weather Roundup
Issued by NWS Sterling, VA

Home | Current Version | Previous Version | Text Only | Print | Product List | Glossary Off
Versions: 1 2 3 4 5 6 7 8 9 10 11 12 13 14 15 16 17 18 19 20 21 22 23 24 25 26 27 28 29 30 31 32 33 34 35 36 37 38 39 40 41 42 43 44 45 46 47 48 49 50

000
ASUS41 KLWX 061010
RWRLWX

REGIONAL WEATHER ROUNDUP
NATIONAL WEATHER SERVICE BALTIMORE MD/WASHINGTON DC
600 AM EDT WED MAY 06 2015

Note: "FAIR" indicates few or no clouds below 12,000 feet
with no significant weather and/or obstructions to visibility.
 TC=TEMPERATURE CELSIUS

 * =Non NWS site. Station does not report precipitation (e.g. rain,
    snow, etc.), thunder, or fog.

DCZ001-MDZ009-015-VAZ040>042-051-053>054-061100-
WASHINGTON METRO

CITY           SKY/WX    TMP DP  RH WIND       PRES   REMARKS
WASHINGTON NAT PTCLDY    64  61  90 CALM      30.20S
DULLES         FOG       57  55  94 S3        30.19S VSB 1/4
ANDREWS AFB    PTCLDY    59  59 100 SE2       30.19S FOG
FT BELVOIR     FOG       57  57 100 CALM      30.20R VSB 1/2
QUANTICO       PTCLDY    63  61  93 S3        30.21R
COLLEGE PARK*  CLEAR     59  59 100 CALM      30.20R
LEESBURG*      PTCLDY    57  57 100 CALM      30.21S
MANASSAS*      MOCLDY    57  57 100 CALM      30.19F
GAITHERSBURG*    N/A     59  55  88 CALM      30.24S VSB 1/2

$$

MDZ006>007-011-014-061100-
BALTIMORE METRO

CITY           SKY/WX    TMP DP  RH WIND       PRES   REMARKS
BWI AIRPORT    PTCLDY    61  59  93 CALM      30.20R
MD SCIENCE CTR   N/A     65  60  84 MISG      30.20S
MARTIN STATE   PTCLDY    63  63 100 CALM      30.22R
ANNAPOLIS      CLEAR     63  60  90 SE5       30.19F
FORT MEADE*    CLEAR     54  52  94 CALM      30.23R

$$

MDZ012-015-019>023-061100-
MARYLAND EASTERN SHORE

CITY           SKY/WX    TMP DP  RH WIND       PRES   REMARKS
OCEAN CITY     PTCLDY    60  54  80 CALM      30.23R
SALISBURY      CLEAR     60  57  89 CALM      30.22S
BAY BRIDGE AP*   N/A    N/A N/A N/A SE3       30.20S
CAMBRIDGE*     CLEAR     59  55  88 CALM      30.21R
EASTON*        PTCLDY    61  61 100 S3        30.24S

$$

MDZ017>025-061100-
SOUTHERN MARYLAND

CITY           SKY/WX    TMP DP  RH WIND       PRES   REMARKS
PATUXENT RIVER MOCLDY    62  57  83 S3        30.20S
ST INIGOES     PTCLDY    65  55  70 SW6       30.20S
LEONARDTOWN*   PTCLDY    61  57  88 SW3       30.22S

$$

MDZ003>005-061100-
NORTH CENTRAL MARYLAND

CITY           SKY/WX    TMP DP  RH WIND       PRES   REMARKS
FREDERICK*     FOG       57  54  88 CALM      30.23R VSB<1/4
HAGERSTOWN APT CLEAR     61  57  87 NW3       30.20S
WESTMINSTER*   PTCLDY    61  57  88 CALM      30.21S

$$

MDZ501>502-061100-
WESTERN MARYLAND

CITY           SKY/WX    TMP DP  RH WIND       PRES   REMARKS
OAKLAND*       CLEAR     61  55  82 SW7       30.28S
CUMBERLAND*    CLEAR     57  57 100 CALM      30.26R

$$

VAZ025>031-061100-
SHENANDOAH VALLEY

CITY           SKY/WX    TMP DP  RH WIND       PRES   REMARKS
WINCHESTER*      N/A     55  52  88 CALM      30.20S FOG
FRONT ROYAL*   FAIR      57  55  94 S3        30.19S
LURAY*         FOG       54  54 100 CALM      30.22R VSB 1/4
NEW MARKET*    CLOUDY    53  53 100 CALM      30.22S VSB 1/4
STAUNTON*      PTCLDY    53  52  94 CALM      30.24F FOG
WAYNESBORO*    FAIR      57  56  96 S3        30.24S

$$

WVZ021-048>050-054>055-061100-
EASTERN WEST VIRGINIA PANHANDLE

CITY           SKY/WX    TMP DP  RH WIND       PRES   REMARKS
MARTINSBURG    PTCLDY    56  54  93 CALM      30.21R FOG
PETERSBURG*    FOG       51  49  90 CALM      30.24S VSB<1/4

$$

VAZ036>039-050-061100-
CENTRAL FOOTHILLS

CITY           SKY/WX    TMP DP  RH WIND       PRES   REMARKS
CHARLOTTESVILL CLEAR     61  59  93 VRB3      30.20R
CULPEPER*      FOG       55  55 100 CALM      30.20S VSB 1/4
ORANGE*        CLEAR     57  55  94 CALM      30.21S
GORDONSVILLE*  FAIR      56  56  99 CALM      30.19S FOG
WARRENTON*     FOG       56  56 100 CALM      30.19S VSB<1/4

$$

VAZ055>057-061100-
NORTH AND CENTRAL PIEDMONT

CITY           SKY/WX    TMP DP  RH WIND       PRES   REMARKS
FREDERICKSBRG* PTCLDY    63  63 100 CALM      30.20R FOG
STAFFORD*      FOG       58  32  36 CALM      30.24S VSB 1/4

$$

NCZ024-NYZ072-PAZ021-071-VAZ022-071-061100-
OTHER REGIONAL OBSERVATIONS

CITY           SKY/WX    TMP DP  RH WIND       PRES   REMARKS
NEW YORK CITY  CLOUDY    68  38  33 VRB7      30.24R
PHILADELPHIA   MOCLDY    66  61  84 N6        30.21R
PITTSBURGH     MOCLDY    57  55  93 CALM      30.21S FOG
ROANOKE        PTCLDY    58  55  90 CALM      30.25S
RICHMOND       MOCLDY    60  53  77 S7        30.21F
RALEIGH        PTCLDY    54  52  93 CALM      30.25S

$$

ANZ530>537-061100-
MARINE OBSERVATIONS

STATION/POSITION TIME  TEMP    WIND        PRES
                       AIR SEA DIR/SP/G
                 (UTC) (F)     (DEG/KT/KT) (MB)
THOMAS PT LIGHT  1000   64 61  130/  7/  7 1023.2S
BALT KEY BRIDGE  0900   64     150/  7/  9 1022.2F
COVE POINT       0900   64     200/  2/  3 1023.4R
LEWISETTA        0900   66 66              1022.7S
SOLOMONS ISLAND  0900      62                N/A
PINEY POINT      0900          260/  2/  3   N/A

$$




USA.gov is the U.S. government's official web portal to all federal, state and local government web resources and services.